Location: Leuk
(46.3174°N, 7.6341°E)
Time: 07:34:23
(UTC+00:00)

SeaSat 1 - Pass Details

Date: 09 March 2021
Orbit: 744 x 747 km, 108.0° (Epoch: 18 April)

Event Time Altitude Azimuth Distance (km) Brightness Sun altitude
Rises 04:53:24 0° 161° (SSE) 3,171 5.9 -11.2°
Reaches altitude 10° 04:55:41 10° 165° (SSE) 2,252 5.1 -10.8°
Maximum altitude 05:00:31 60° 245° (WSW) 851 2.5 -10.0°
Drops below altitude 10° 05:05:25 10° 325° (NW) 2,270 4.6 -9.2°
Sets 05:07:43 0° 330° (NNW) 3,199 5.4 -8.8°
